Location: Bishop�s Knoyle
(51.0728°N, 2.1714°W)
Time: 01:41:02
(UTC+00:00)

ISS - Pass Details

Date: 25 September 2021
Orbit: 417 x 423 km, 51.6° (Epoch: 27 October)

Event Time Altitude Azimuth Distance (km) Brightness Sun altitude
Rises 19:42:18 0° 274° (W) 2,366 1.6 -16.7°
Reaches altitude 10° 19:44:24 10° 276° (W) 1,502 0.3 -17.0°
Maximum altitude 19:47:46 80° 2° (N) 432 -3.8 -17.5°
Enters shadow 19:48:31 51° 81° (E) 535 -3.6 -17.6°
